Regional Weather Roundup
Issued by NWS Midland/Odessa, TX

Skip options and go directly to product.
Home | Oldest Version | Previous Version | Current Version | All | Text Only | Save Text | Print | Product List | Glossary On

Skip product version selection by date and time.   
108
ASUS44 KMAF 232010
RWRMAF
MIDLAND AREA WEATHER ROUNDUP
NATIONAL WEATHER SERVICE MIDLAND TX
300 PM CDT WED APR 23 2014

...IN SOUTHWEST TEXAS AND SOUTHEAST NEW MEXICO...

CITY           SKY/WX    TMP DP  RH WIND       PRES   REMARKS
ALPINE         MOSUNNY   87  24  10 SW10G29   29.93F
ANDREWS        FAIR      86  43  22 SW15      29.77F
ARTESIA        MOSUNNY   84  21  10 W28G35    29.75F
BIG SPRING     MOSUNNY   92  49  22 SW23G29   29.76F
CARLSBAD       PTSUNNY   89  19   7 W21G28    29.75F
DRYDEN           N/A     97  54  23 SE12G18   29.73F
FORT STOCKTON  PTSUNNY   90  34  13 W10G26    29.77F
GUAD PASS      SUNNY     79  25  13 SW33G43   29.90F
HOBBS          SUNNY     82  23  11 SW16G24   29.80F
MARFA          MOSUNNY   84  27  12 W18G24    29.92F
MIDLAND AIRPK  PTSUNNY   89  45  21 SW10G24   29.76F
MIDLAND INTL   CLOUDY    90  46  21 SW18      29.76F
ODESSA           N/A    N/A N/A N/A MISG      29.76F
PECOS          PTSUNNY   87  41  19 CALM      29.75F
PRESIDIO       FAIR      93  22   8 SW10      29.77F
SEMINOLE       PTSUNNY   85  31  14 W18       29.78F
SNYDER         PTSUNNY   90  55  30 S20G35    29.73F
WINK           PTSUNNY   91  31  11 W15G24    29.74F
$$
...OTHER STATIONS IN TEXAS...

CITY           SKY/WX    TMP DP  RH WIND       PRES   REMARKS
ABILENE        PTSUNNY   89  54  30 S20G32    29.76F
AMARILLO       PTSUNNY   86  40  19 S28G37    29.69F
AUSTIN         MOSUNNY   85  65  51 S15G23    29.84F
BROWNSVILLE    SUNNY     86  61  42 SE21G26   29.85F
CORPUS CHRISTI MOSUNNY   87  64  46 SE15G28   29.86F
DALLAS FTW     MOSUNNY   86  60  41 S14G23    29.81F
DEL RIO        SUNNY     93  58  30 SE18G32   29.73F
EL PASO        MOSUNNY   84  20   9 SW22G35   29.83F
HOUSTON INT    MOSUNNY   82  64  54 SE13      29.89F
LUBBOCK        PTSUNNY   87  46  24 SW21G28   29.73F
SAN ANGELO     SUNNY     92  53  26 S20G30    29.75F
SAN ANTONIO    PTSUNNY   89  63  41 SE20G25   29.84F
WACO           MOSUNNY   85  61  44 S14       29.83F
WICHITA FALLS  NOT AVBL
$$
...OTHER LOCATIONS IN NEW MEXICO...

CITY           SKY/WX    TMP DP  RH WIND       PRES   REMARKS
ALAMAGORDO     SUNNY     81  14   8 SW16      29.82F
ALBUQUERQUE    MOSUNNY   74  12   9 SW22G30   29.80F
CANNON AFB     MOSUNNY   82  19   9 SW22G33   29.73F
CLOVIS         MOSUNNY   82  25  12 SW23G30   29.75F
HOLLOMAN AFB   MOSUNNY   82  12   7 W21G29    29.80F
ROSWELL        MOSUNNY   89  12   5 SW17G28   29.71F
RUIDOSO        SUNNY     68  16  13 SW29G35   29.91F
SANTA FE       MOSUNNY   70  19  14 W18G28    29.82F
TRUTH OR CONSE SUNNY     80  12   7 SW15G29   29.79F
TUCUMCARI      MOSUNNY   86  24  10 W25G36    29.66F
$$

USA.gov is the U.S. government's official web portal to all federal, state and local government web resources and services.